World > North America > United States > Ohio

Osgood, Ohio Regional Weather

Lat: 40.34N, Lon: 84.49W
Wx Zone: OHZ042Web Search
Osgood Weather Warning NWS WEATHER ALERT FOR THE OSGOOD, OH AREA - Issued: 513 AM EDT Sun May 9 2021 Osgood Weather Warning  

Our weather pages are very print friendly and they make great conversation starters.

Feedback


°F Click to change Osgood hourly weather to Imperial units.Click to change Osgood hourly weather to Metric units. °C
Osgood Weather Map
UTC Time: 5/9/2021, 17:16
Your Time:

Osgood, OH Regional Weather

Expires:202105091800;;849054
ASUS41 KCLE 091712
RWRCLE
OHIO REGIONAL WEATHER ROUNDUP
NATIONAL WEATHER SERVICE WILMINGTON, OH
100 PM EDT SUN MAY 09 2021

NOTE: "FAIR" INDICATES FEW OR NO CLOUDS BELOW 12,000 FEET WITH NO
SIGNIFICANT WEATHER AND/OR OBSTRUCTIONS TO VISIBILITY.


OHZ042-051>053-060>062-070>072-077>081-091800-
  SOUTHWEST OHIO
  
CITY           SKY/WX    TMP DP  RH WIND       PRES   REMARKS
CINC-COVINGTON LGT RAIN  61  57  87 S20G31    29.58F                  
CINC-LUNKEN    LGT RAIN  54  53  97 CALM      29.62F FOG              
HAMILTON       CLOUDY    51  50  96 E6        29.61F                  
DAYTON         LGT RAIN  47  42  83 SE17      29.63F                  
WRIGHT-PAT AFB LGT RAIN  45  44  94 SE14      29.64F                  
DAYTON GENERAL LGT RAIN  48  45  89 E14G23    29.60F                  
WILMINGTON     LGT RAIN  46  45  96 SE13      29.64F FOG              
$$


SKY/WX - Weather  TMP - Temperature  DP - Dew Point  RH - Relative Humidity
WIND - Wind Direction/Speed PRES - Barometric Pressure VSB - Visibility
WCI - Wind Chill Index E13G22 Wind - East Wind 13 mph/Gusts of 22 mph